www.pogodaiklimat.ru

Погода и климат >> Архив погоды >> Россия >> Оренбургская область >> Беляевка


ПОГОДА в Беляевке

  • Прогноз погоды в Беляевке
  • Монитор погоды в Беляевке

АРХИВ ПОГОДЫ в Беляевке

Время (UTC), дата Ветер
(напр.,м/с)
 
Видим.   Явления Облачность Т
(С)
Тd
(С)
f
(%)
Тe
(С)
Тes
(С)
Комфортность P
(гПа)
Po
(гПа)
Тmin
(С)
Tmax
(С)
R
(мм)
R24
(мм)
S
(см)
18 14.07 С 3 10 км 8/8 630 м
[Cb cap]
+23.4 +18.0 72 +29 +29 душно 1001.4 986.2
21 14.07 СЗ 4 10 км 8/8 630 м
[Cb cap]
+22.6 +19.3 82 +29 +29 очень
душно
997.3 982.2
00 15.07 С 6-11
{17}
10 км гроза без осадков {ливн. осадки} 9/9 600 м
[Cb cap]
+19.7 +18.2 91 +22 +22 комфорт 994.0 978.7
03 15.07 З 6
{14}
10 км {гроза} 10/0
[As op]
+19.4 +17.0 86 +21 +21 комфорт 996.7 981.4 +18.3 0.0
06 15.07 З 7-10
{13}
20 км {гроза} 10/10 540 м
[Frnb Ns]
+19.6 +15.4 77 +21 +21 комфорт 1000.3 985.0
09 15.07 З 8-13
{14}
20 км 9/9 630 м
[Cb calv]
+20.5 +13.2 63 +22 +23 комфорт 1003.8 988.4
12 15.07 З 8-16
{16}
20 км 6/6 840 м
[Cu med, cong]
+23.9 +10.9 44 +25 +26 комфорт 1005.4 990.2
15 15.07 СЗ 6-10
{16}
20 км ясно +22.4 +10.1 46 +24 +24 комфорт 1007.3 992.0 +24.4
18 15.07 СЗ 1
{10}
10 км ясно +17.2 +10.4 64 +18 +18 1009.8 994.1
21 15.07 штиль 0 10 км ясно +10.2 +7.9 86 +9 +9 1010.8 994.7
00 16.07 В 1 20 км ясно +8.8 +7.5 92 +8 +8 1011.7 995.6
03 16.07 СВ 1 20 км ясно +17.1 +10.7 66 +18 +22 1012.6 996.9 +8.0
06 16.07 СЗ 4 20 км 3/0
[Ci sp]
+23.7 +11.5 46 +25 +34 комфорт 1012.8 997.4
09 16.07 СЗ 4 20 км 3/0
[Ci fib]
+27.2 +7.8 29 +27 +37 жарко 1012.3 997.1
12 16.07 СЗ 3 20 км 4/0
[Ci]
+27.8 +6.9 27 +27 +33 жарко 1012.0 996.9
15 16.07 СЗ 2 20 км 8/0
[Ci]
+27.1 +7.6 29 +27 +27 жарко 1012.1 996.9 +28.2
18 16.07 С 1 10 км 4/0
[Ci fib]
+19.6 +10.6 56 +22 +22 комфорт 1013.2 997.6
21 16.07 Ю 1 10 км 6/0
[Ci fib]
+16.9 +10.4 66 +18 +18 1013.7 998.0
00 17.07 СВ 1 20 км 4/0
[Ac trans]
+16.9 +11.1 69 +18 +18 1013.8 998.0
03 17.07 ЮВ 1 20 км 10/10 750 м
[Sc]
+18.0 +12.2 69 +19 +19 1013.8 998.2 +14.8
06 17.07 СВ 3 20 км ясно +27.3 +11.5 37 +28 +39 жарко 1012.4 997.2
09 17.07 СВ 3 20 км 6/6 840 м
[Cu med, cong]
+32.1 +8.3 23 +31 +36 жарко 1010.9 996.0
12 17.07 С 2 20 км 9/9 630 м
[Cb calv]
+31.1 +9.3 26 +30 +31 жарко 1009.9 995.0
15 17.07 С 5-10
{11}
20 км {ливн. осадки} 9/9 600 м
[Cb calv]
+23.7 +13.3 52 +26 +26 жарко 1010.7 995.4 +33.2 0.0
18 17.07 СВ 3 10 км 9/9 630 м
[Cb cap]
+22.6 +13.2 55 +26 +26 жарко 1009.9 994.6
21 17.07 В 3 10 км 4/0
[Ci sp]
+19.9 +12.9 64 +22 +22 комфорт 1009.3 993.8
00 18.07 В 3 20 км 3/0
[Ci fib]
+16.3 +12.2 77 +16 +16 1008.8 993.1
03 18.07 В 6 20 км 4/0
[Ci sp]
+23.9 +10.4 43 +25 +26 комфорт 1008.0 992.7 +15.7
06 18.07 Ю 5
{10}
20 км 9/3 600 м
[Cb cap Ac trans]
+31.4 +6.1 20 +30 +32 жарко 1007.2 992.3
09 18.07 Ю 4
{16}
20 км 9/9 660 м
[Cb cap]
+30.2 +13.0 35 +31 +33 жарко 1007.0 992.1
12 18.07 ЮВ 4
{11}
20 км 9/9 700 м
[Cb cap]
+36.0 +10.2 21 +35 +35 очень
жарко
1005.2 990.5
15 18.07 Ю 4
{10}
20 км ясно +35.1 +10.9 23 +34 +35 очень
жарко
1004.9 990.2 +37.0
18 18.07 С 1 10 км ясно +26.0 +12.5 43 +28 +28 жарко 1006.6 991.5
21 18.07 штиль 0 10 км ясно +20.5 +12.2 59 +22 +22 комфорт 1007.4 992.0
00 19.07 В 2 20 км 6/0
[Ci fib]
+17.1 +11.8 71 +17 +17 1008.8 993.2
03 19.07 В 3 20 км 6/0
[Ac As]
+23.1 +13.6 55 +26 +28 жарко 1008.6 993.3 +16.3
06 19.07 В 2 20 км 8/0
[Ac trans]
+31.8 +13.5 33 +33 +40 жарко 1007.4 992.6
09 19.07 СВ 3 20 км 10/0
[As op]
+30.8 +12.5 33 +32 +34 жарко 1006.7 991.8
12 19.07 В 3 20 км 9/9 800 м
[Cb cap]
+32.6 +13.3 31 +34 +34 очень
жарко
1006.3 991.5
15 19.07 СВ 3 20 км 8/8 750 м
[Cb cap]
+30.5 +12.2 33 +31 +31 жарко 1004.9 990.0 +33.5
18 19.07 С 4 10 км {гроза, ливн. осадки} 9/9 720 м
[Cb cap]
+29.2 +11.0 32 +30 +30 жарко 1005.2 990.3
21 19.07 СВ 3
{12}
10 км 3/0
[Ac trans]
+28.1 +9.9 32 +28 +28 жарко 1004.0 989.0
00 20.07 С 3 20 км ясно +26.6 +10.4 36 +27 +27 жарко 1004.1 989.0
03 20.07 С 5 20 км ясно +24.7 +14.5 53 +27 +29 жарко 1005.5 990.4 +22.4 0.0
06 20.07 С 5
{11}
20 км ясно +31.2 +12.7 32 +32 +39 жарко 1005.2 990.3
09 20.07 СЗ 5-10
{10}
20 км 3/0
[Ci fib]
+34.5 +12.3 26 +35 +42 очень
жарко
1005.0 990.3
12 20.07 СЗ 8-14
{17}
20 км 4/0
[Ci fib]
+32.7 +15.6 36 +35 +36 душно 1005.7 990.9
15 20.07 СЗ 8-13
{16}
20 км 8/0
[Ci fib]
+29.0 +13.2 38 +31 +31 жарко 1007.7 992.7 +34.9
18 20.07 СЗ 6-10
{13}
10 км ясно +25.9 +12.4 43 +27 +27 жарко 1009.0 993.8
21 20.07 З 5
{11}
10 км ясно +21.8 +11.9 53 +24 +24 комфорт 1009.5 994.1
00 21.07 СЗ 3 20 км ясно +18.3 +12.1 67 +19 +19 1010.9 995.3
03 21.07 СЗ 3 20 км ясно +20.8 +14.0 65 +24 +27 комфорт 1012.0 996.5 +17.6
06 21.07 СЗ 7-12
{12}
20 км ясно +27.0 +11.5 38 +28 +32 жарко 1012.5 997.3
09 21.07 СЗ 7-12
{12}
20 км 4/4 600 м
[Cu med, cong]
+29.2 +6.3 24 +28 +31 жарко 1012.6 997.5
12 21.07 СЗ 7-11
{14}
20 км 3/3 600 м
[Cu med, cong]
+29.5 +5.7 22 +28 +30 жарко 1012.7 997.6
15 21.07 СЗ 4
{12}
20 км ясно +28.0 +7.6 28 +28 +28 жарко 1012.8 997.7 +30.2

 

Местоположение метеостанции Беляевка (Оренбургская область, Россия): широта 51.42 долгота 56.42 высота над уровнем моря 131 м.

В архиве по умолчанию представлена погода в Беляевке за последнюю неделю. Архивные данные за месяц целиком и за предыдущие месяцы, начиная с января 2011 года, Вы можете получить, выбрав интересующий диапазон дат из раскрывающегося списка и нажав кнопку "Ввод!".


*Определитесь, кто Вы:
робот инопланетянин человек

Внимание! Время в таблицах - всемирное. Для получения местного времени необходимо прибавить поправку, которая равна 5 ч.

Смотрите также архив погоды в соседних городах и на ближайших метеорологических станциях:

Погода в Кувандыке (Оренбургская область, Россия) (66 км)
Погода в Акбулаке (Оренбургская область, Россия) (71 км)
Погода в Новокуйбышевске (Самарская область, Россия) (71 км)
Погода в Мартуке (Актюбинская область, Казахстан) (75 км)
Погода в Оренбурге (Оренбургская область, Россия) (96 км)
Погода в Троицком Т (Оренбургская область, Россия) (101 км)
Погода в Родниковке (Актюбинская область, Казахстан) (101 км)
Погода в Татарской Каргале (Оренбургская область, Россия) (101 км)
Погода в Соль-Илецк (Оренбургская область, Россия) (102 км)
Погода в Зилаире (Башкирия, Россия) (112 км)

Пояснения к столбцам:

Ветер - указаны скорость ветра в м/с - средняя за 10 мин, порывы в срок и между сроками (в фигурных скобках) и направление, откуда дует ветер: С - северный, СВ - северо-восточный, В - восточный, ЮВ - юго-восточный, Ю - южный, ЮЗ - юго-западный, З - западный, СЗ - северо-западный.
Видимость - горизонтальная дальность видимости в метрах или километрах. При видимости от 1 до 10 км при отсутствии осадков обычно наблюдается дымка, при ухудшении видимости до 1 км и менее - туман. В сухую погоду видимость может ухудшаться дымом, пылью или мглою.
Явления - указаны атмосферные явления, наблюдавшиеся в срок или в последний час перед сроком; фигурными скобками обозначены явления, наблюдавшиеся между сроками (за 1-3 часа до срока); квадратными скобками обозначены град или гололедные отложения с указанием их диаметра в мм.
Облачность - указаны через наклонную черту общая и нижняя облачность в баллах и высота нижней границы облаков в метрах; квадратными скобками обозначены формы облаков: Ci - перистые, Cs - перисто-слоистые, Cc - перисто-кучевые, Ac - высококучевые, As - высокослоистые, Sc - слоисто-кучевые, Ns - слоисто-дождевые, Cu - кучевые, Cb - кучево-дождевые. Подробнее классификацию облаков см. в Атласе облаков (PDF).
T - Температура воздуха - температура, измеренная на высоте 2 м над землей.
Td - Температура точки росы - температура, при понижении до которой содержащийся в воздухе водяной пар достигнет насыщения.
f - Относительная влажность воздуха - влажноcть воздуха, измеренная на высоте 2 м над землей.
Te - Эффективная температура - температура, которую ощущает одетый по сезону человек в тени. Характеристика душности погоды. При расчете учитывается влияние влажности воздуха и скорости ветра на теплоощущения человека.
Tes - Эффективная температура на солнце - температура, которую ощущает человек, с поправкой на солнечный нагрев. Характеристика знойности погоды. Зависит от высоты солнца над горизонтом, облачности и скорости ветра. Ночью, в пасмурную погоду, а также при ветре 12 м/с и более поправка равна нулю.
P - Атмосферное давление - приведенное к уровню моря атмосферное давление.
Po - Атмосферное давление - измеренное на уровне метеостанции атмосферное давление.
Tmin - Минимальная температура - минимум температуры воздуха на высоте 2 м над землей.
Tmax - Максимальная температура - максимум температуры воздуха на высоте 2 м над землей.
R - Количество осадков - Количество выпавших осадков за период времени, мм. При наведении курсора мыши на число - период времени, за который выпало указанное количество осадков.
R24 - Количество осадков - Количество выпавших осадков за 24 часа, мм.
S - Снежный покров - Высота снежного покрова, см. При наведении курсора мыши на число - состояние снежного покрова и степень покрытия местности в баллах.